Location: Peebles
(55.6412°N, 3.1714°W)
Time: 20:37:34
(UTC+01:00)

deb Kosmos-2123 - Pass Details

Date: 04 July 2022
Orbit: 942 x 985 km, 82.9° (Epoch: 17 August)

Event Time Altitude Azimuth Distance (km) Brightness Sun altitude
Exits shadow 02:49:59 10° 218° (SW) 2,770 ? -9.0°
Reaches altitude 10° 02:50:04 10° 218° (SW) 2,739 ? -9.0°
Maximum altitude 02:56:05 46° 291° (WNW) 1,301 ? -8.7°
Drops below altitude 10° 03:02:07 10° 4° (N) 2,739 ? -8.4°
Sets 03:04:45 0° 11° (N) 3,684 ? -8.2°
